Location: Northam
(31.6525°S, 116.6655°E)
Time: 23:43:25
(UTC+08:00)

Envisat - Pass Details

Date: 23 May 2021
Orbit: 764 x 766 km, 98.1° (Epoch: 14 June)

Event Time Altitude Azimuth Distance (km) Brightness Sun altitude
Rises 18:40:25 0° 187° (S) 3,264 6.2 -16.9°
Reaches altitude 10° 18:43:17 10° 203° (SSW) 2,329 5.6 -17.5°
Maximum altitude 18:46:56 20° 248° (WSW) 1,729 5.5 -18.2°
Drops below altitude 10° 18:50:34 10° 294° (WNW) 2,310 6.7 -19.0°
Sets 18:53:25 0° 310° (NW) 3,227 7.3 -19.6°
